This demonstration page uses our WeatherBlox Daily Observations layout. Learn more.

Left ArrowRight Arrow

Hourly Observations for July 22, 2018

Temp ( °F °C ) Dew Point ( °F °C ) Humidity (%) Winds ( mph kmh ) Pressure ( in mb ) Visibility ( mi km ) Precip ( " mm )
12:15 am 00:15 Clear 74 23.5 69 20.5 83 83 ESE 7 11 29.94 1014 10 16 N/A
12:35 am 00:35 Clear 74 23.5 69 20.5 83 83 ESE 7 11 29.97 1015 10 16 N/A
12:55 am 00:55 Clear 74 23.5 69 20.5 83 83 SE 7 11 30.00 1016 10 16 N/A
1:15 am 01:15 Clear 74 23.3 69 20.5 84 84 SE 8 13 30.00 1016 10 16 N/A
1:35 am 01:35 Clear 74 23.2 68 20.1 83 83 SE 12 19 30.00 1016 10 16 N/A
1:55 am 01:55 Clear 73 22.8 68 20.1 85 85 SE 10 17 29.97 1015 10 16 N/A
2:15 am 02:15 Clear 73 22.7 68 20 85 85 ESE 9 15 29.97 1015 10 16 N/A
2:35 am 02:35 Clear 73 22.5 67 19.7 84 84 ESE 12 19 29.94 1014 10 16 N/A
2:55 am 02:55 Clear 73 22.5 67 19.5 83 83 ESE 10 17 29.94 1014 10 16 N/A
3:15 am 03:15 Clear 72 22.1 67 19.3 84 84 SE 7 11 29.97 1015 10 16 N/A
3:35 am 03:35 Clear 71 21.7 67 19.2 86 86 SE 6 9 29.94 1014 10 16 N/A
3:55 am 03:55 Clear 71 21.7 66 19 85 85 ESE 9 15 29.94 1014 10 16 N/A
4:15 am 04:15 Clear 71 21.5 66 18.8 85 85 ESE 9 15 29.94 1014 10 16 N/A
4:35 am 04:35 Clear 70 21.2 65 18.6 85 85 SE 7 11 29.94 1014 10 16 N/A
4:55 am 04:55 Clear 70 20.9 65 18.5 86 86 ESE 8 13 29.94 1014 10 16 N/A
5:15 am 05:15 Clear 70 20.9 65 18.5 86 86 ESE 8 13 29.94 1014 10 16 N/A
5:35 am 05:35 Clear 69 20.6 65 18.1 86 86 ESE 8 13 29.94 1014 10 16 N/A
5:55 am 05:55 Clear 69 20.5 64 18 86 86 SE 7 11 29.94 1014 10 16 N/A
6:15 am 06:15 Clear 69 20.3 64 17.8 86 86 SE 7 11 29.94 1014 10 16 N/A
6:35 am 06:35 Sunny 69 20.5 64 17.6 84 84 ESE 7 11 29.97 1015 10 16 N/A
6:55 am 06:55 Sunny 69 20.4 64 17.5 84 84 SE 7 11 30.00 1016 10 16 N/A
7:15 am 07:15 Sunny 69 20.3 64 17.5 84 84 SE 8 13 29.94 1014 10 16 N/A
7:35 am 07:35 Sunny 69 20.7 64 17.5 82 82 SE 7 11 29.94 1014 10 16 N/A
7:55 am 07:55 Sunny 70 21.1 64 17.8 82 82 SE 10 17 29.97 1015 10 16 N/A
8:15 am 08:15 Sunny 71 21.6 64 18 80 80 SE 8 13 29.97 1015 10 16 N/A
8:35 am 08:35 Sunny 72 22.2 65 18.3 79 79 SE 7 11 29.97 1015 10 16 N/A
8:55 am 08:55 Sunny 73 23 65 18.5 76 76 SE 10 17 29.97 1015 10 16 N/A
9:15 am 09:15 Sunny 74 23.5 65 18.5 74 74 SE 12 19 29.94 1014 10 16 N/A
9:35 am 09:35 Sunny 75 23.9 66 18.7 73 73 SSE 13 20 29.91 1013 10 16 N/A
9:55 am 09:55 Sunny 76 24.4 66 18.8 71 71 SSE 13 20 29.91 1013 10 16 N/A
10:15 am 10:15 Sunny 77 25 66 19.1 70 70 SSE 12 19 29.91 1013 10 16 N/A
10:35 am 10:35 Sunny 78 25.4 67 19.2 69 69 SSE 12 19 29.91 1013 10 16 N/A
10:55 am 10:55 Sunny 79 26.1 67 19.2 66 66 SSE 13 20 29.91 1013 10 16 N/A
11:15 am 11:15 Sunny 80 26.6 67 19.5 65 65 S 12 19 29.91 1013 10 16 N/A
11:35 am 11:35 Sunny 81 27.1 67 19.5 63 63 SSE 13 20 29.91 1013 10 16 N/A
11:55 am 11:55 Sunny 81 27.2 66 19 61 61 S 14 22 29.91 1013 10 16 N/A
12:15 pm 12:15 Sunny 82 27.6 67 19.7 62 62 SSE 13 20 29.88 1012 10 16 N/A
12:35 pm 12:35 Sunny 82 28 67 19.6 60 60 SSE 9 15 29.88 1012 10 16 N/A
12:55 pm 12:55 Sunny 83 28.4 67 19.3 58 58 SE 10 17 29.88 1012 10 16 N/A
1:15 pm 13:15 Sunny 83 28.5 67 19.7 59 59 SE 12 19 29.88 1012 10 16 N/A
1:35 pm 13:35 Sunny 84 28.7 67 19.4 57 57 SSE 12 19 29.88 1012 10 16 N/A
1:55 pm 13:55 Sunny 85 29.2 67 19.4 56 56 SSE 12 19 29.88 1012 10 16 N/A
2:15 pm 14:15 Sunny 85 29.4 67 19.4 55 55 SSE 13 20 29.88 1012 10 16 N/A
2:35 pm 14:35 Sunny 85 29.5 66 19 53 53 SSE 10 17 29.88 1012 10 16 N/A
2:55 pm 14:55 Partly Cloudy 86 29.9 67 19.5 54 54 S 12 19 29.88 1012 10 16 N/A
3:15 pm 15:15 Sunny 86 30 67 19.3 53 53 SSE 13 20 29.88 1012 10 16 N/A
3:35 pm 15:35 Sunny 86 30.1 67 19.3 52 52 SE 10 17 29.88 1012 10 16 N/A
3:55 pm 15:55 Sunny 87 30.5 68 19.8 53 53 SSE 14 22 29.88 1012 10 16 N/A
4:15 pm 16:15 Sunny 87 30.4 67 19.5 52 52 S 9 15 29.88 1012 10 16 N/A
4:35 pm 16:35 Partly Cloudy 87 30.4 68 19.8 53 53 S 13 20 29.88 1012 10 16 N/A
4:55 pm 16:55 Partly Cloudy 87 30.6 67 19.7 52 52 SSE 13 20 29.88 1012 10 16 N/A
5:15 pm 17:15 Partly Cloudy 87 30.3 67 19.2 51 51 SE 10 17 29.88 1012 10 16 N/A
5:35 pm 17:35 Partly Cloudy 87 30.4 66 18.9 50 50 SSE 7 11 29.88 1012 10 16 N/A
5:55 pm 17:55 Sunny 87 30.3 66 19.1 51 51 SE 9 15 29.88 1012 10 16 N/A
6:15 pm 18:15 Sunny 86 30 65 18.3 49 49 SSE 8 13 29.88 1012 10 16 N/A
6:35 pm 18:35 Partly Cloudy 86 30 65 18.5 50 50 SSE 7 11 29.88 1012 10 16 N/A
6:55 pm 18:55 Partly Cloudy 86 29.9 66 19.1 52 52 ESE 6 9 29.88 1012 10 16 N/A
7:15 pm 19:15 Mostly Cloudy 84 28.7 67 19.6 58 58 E 7 11 29.88 1012 10 16 N/A
7:35 pm 19:35 Partly Cloudy 82 27.5 67 19.2 61 61 E 6 9 29.88 1012 10 16 N/A
7:55 pm 19:55 Sunny 80 26.9 67 19.2 63 63 E 7 11 29.91 1013 10 16 N/A
8:15 pm 20:15 Partly Cloudy 78 25.7 69 20.6 74 74 ENE 5 7 29.91 1013 10 16 N/A
8:35 pm 20:35 Mostly Cloudy 79 25.9 69 20.3 71 71 ESE 8 13 29.91 1013 10 16 N/A
8:55 pm 20:55 Mostly Cloudy 80 26.9 67 19.4 64 64 ESE 7 11 29.91 1013 10 16 N/A
9:15 pm 21:15 Partly Cloudy 80 26.8 66 19.1 63 63 SE 9 15 29.91 1013 10 16 N/A
9:35 pm 21:35 Clear 79 26.3 67 19.4 66 66 SE 13 20 29.91 1013 10 16 N/A
9:55 pm 21:55 Clear 78 25.7 68 20.2 72 72 SSE 8 13 29.91 1013 10 16 N/A
10:15 pm 22:15 Partly Cloudy with Light Rain 77 25.1 68 20.1 74 74 SE 8 13 29.91 1013 10 16 N/A
10:35 pm 22:35 Partly Cloudy with Light Rain 76 24.5 68 20.1 77 77 SE 5 7 29.94 1014 10 16 N/A
10:55 pm 22:55 Clear 76 24.3 68 20.1 77 77 SSE 5 7 29.97 1015 10 16 N/A
11:15 pm 23:15 Partly Cloudy with Light Rain 75 23.9 69 20.5 81 81 N N/A 30.00 1016 10 16 N/A
11:35 pm 23:35 Partly Cloudy with Light Rain 75 23.8 69 20.5 82 82 ESE 5 7 30.00 1016 10 16 0.01 0.25
11:55 pm 23:55 Partly Cloudy with Light Rain 74 23.3 69 20.8 86 86 N N/A 30.00 1016 10 16 0.01 0.25

Powered by AerisWeather